星链-3721 (STARLINK-3721 )

导读 | 星芒AI

STARLINK-3721 是 SpaceX Starlink 项目中的一颗低轨道通信卫星,属于第三代星链卫星(v1.5)系列。该卫星于2023年发射,旨在为全球提供高速互联网服务。它运行在约540公里高的近地轨道,配备先进相控阵天线和激光通信系统,以提升网络连接的稳定性和传输速度。STARLINK-3721 是 SpaceX 扩展其全球宽带网络计划的一部分,有助于改善偏远地区和网络基础设施薄弱地区的互联网接入能力。

基本信息
目录编号:
52134
目录名称:
STARLINK-3721
国际标识:
2022-029AY
轨道中心:
EARTH
卫星名称:
星链-3721
卫星全名:
星链-3721 (STARLINK-3721 )
卫星状态:
在轨 (已飞行1373 天)
发射日期:
2022-03-19 UTC
国别 :
美国 (US)
星等 :
--
轨道信息
数据来源 国际轨道数据 AOE轨道数据
星历时间 2025-12-20T21:56:22+0800
10小时前
查看轨道信息
2025-12-20T04:00:00+0800
1天前
查看轨道信息
半长轴 6917.893km 6917.888km
偏心率 0.0001268 0.0001596
轨道倾角 53.218° 53.217°
近地点辐角 90.124° 88.938°
升交点赤经 64.253° 67.609°
平近点角 269.989° 168.846°
近地点 538.878km 538.646km
远地点 540.634km 540.856km
周期 95.438分钟 95.438分钟
每日圈数 15.088359 15.088376
详细信息
固有亮度:
5
最大亮度:
2.5
卫星平台:
Starlink v1.5
覆盖范围:
全球
运营商:
太空探索技术公司
运营商所在国:
美国
制造商(研发单位):
太空探索技术公司
制造商所在国:
美国
使用方式:
暂无
卫星简介
星链(Starlink)计划是由太空探索技术公司(SpaceX)提出的一个巨型低轨卫星互联网星座项目,计划在2019年至2024年间在太空搭建由约1.2万颗卫星组成的“星链”网络,其中1584颗将部署在地球上空550千米处的近地轨道,并从2020年开始工作。该卫星仍在工作。
2D轨道图
3D轨道图
轨道高度分析图
轨道倾角分析图
轨道综合分析图
查看轨道综合分析图